{"data":{"norad_id":59095,"intl_designator":"2024-041X","name":"STARLINK-31295","alt_names":[],"object_type":"PAYLOAD","status":"ACTIVE","operator":null,"country":"US","launch_date":"2024-02-29","launch_site_code":"AFETR","launch_vehicle":null,"mission":null,"orbit_class":"UNKNOWN","rcs_meters":null,"size_class":null,"mass_kg":null,"dimensions":null,"purposes":["comms"],"wikipedia_slug":null,"has_3d_model":false,"image_url":null,"decayed_at":null,"tle_current":{"epoch":"2026-05-24T17:54:19.158048Z","epoch_age_seconds":96716,"freshness":"FRESH","line1":"1 59095U 24041X   26144.74605507 -.00000283  00000+0 -74874-6 0  9990","line2":"2 59095  43.0005 241.1491 0001299 268.2509  91.8194 15.27586703125900","mean_motion":15.27586703,"eccentricity":0.0001299,"inclination_deg":43.0005,"raan_deg":241.1491,"arg_perigee_deg":268.2509,"mean_anomaly_deg":91.8194,"bstar":-7.4874e-7,"rev_number":12590,"period_min":94.266335074272,"perigee_km":482.13775945302,"apogee_km":483.92029038629,"semimajor_km":6861.1660249197,"source":"CELESTRAK","updated_at":"2026-05-25T13:38:18.831665Z"}}}